FW1436 Weather Reports


time (UTC)temp
F
wind
direction
speed
knots
gust
knots
rain 1hr
in
rain 24hr
in
rain mn
in
humidity
%
barometer
mb
20260831160042 91 54 0.9 5.2 0.00 0.00 0.00 27 1012.4
20260831154548 91 68 1.7 8.7 0.00 0.00 0.00 26 1012.5
20260831153037 90 300 1.7 7.0 0.00 0.00 0.00 27 1012.6
20260831151535 90 255 0.9 7.0 0.00 0.00 0.00 27 1012.7
20260831150034 90 261 2.6 7.8 0.00 0.00 0.00 27 1012.8
20260831144536 89 288 1.7 10.4 0.00 0.00 0.00 27 1012.8
20260831143134 89 325 1.7 5.2 0.00 0.00 0.00 28 1012.8
20260831141545 89 286 2.6 6.1 0.00 0.00 0.00 27 1013.0
20260831140038 89 295 1.7 8.7 0.00 0.00 0.00 27 1013.1
20260831134534 88 220 0.9 3.5 0.00 0.00 0.00 30 1013.3
20260831133031 88 49 0.9 7.8 0.00 0.00 0.00 29 1013.4
20260831131520 87 261 1.7 7.0 0.00 0.00 0.00 30 1013.5
20260831130019 87 300 3.5 8.7 0.00 0.00 0.00 30 1013.6
20260831124520 86 323 1.7 7.8 0.00 0.00 0.00 30 1013.9
20260831123020 86 327 2.6 8.7 0.00 0.00 0.00 31 1014.0
20260831121515 85 154 0.9 4.3 0.00 0.00 0.00 32 1014.1
20260831120013 85 300 1.7 4.3 0.00 0.00 0.00 33 1014.3
20260831114512 85 245 4.3 8.7 0.00 0.00 0.00 34 1014.4
20260831113013 83 4 0.9 4.3 0.00 0.00 0.00 35 1014.5
20260831111508 83 67 0.9 6.1 0.00 0.00 0.00 36 1014.8
20260831110006 82 212 0.9 4.3 0.00 0.00 0.00 36 1014.9
20260831104505 81 95 0.9 3.5 0.00 0.00 0.00 37 1015.1
20260831103002 81 271 0.0 3.5 0.00 0.00 0.00 38 1015.2
20260831101616 80 96 1.7 5.2 0.00 0.00 0.00 37 1015.3
20260831100108 79 108 3.5 7.0 0.00 0.00 0.00 37 1015.3
20260831094559 78 78 2.6 8.7 0.00 0.00 0.00 36 1015.3
20260831093054 78 101 1.7 6.1 0.00 0.00 0.00 38 1015.2
20260831091550 77 83 0.9 3.5 0.00 0.00 0.00 43 1015.3
20260831090104 77 114 1.7 3.5 0.00 0.00 0.00 43 1015.2
20260831084547 75 98 0.9 4.3 0.00 0.00 0.00 44 1015.1
20260831083045 74 111 0.9 2.6 0.00 0.00 0.00 46 1015.0
20260831081547 73 116 0.9 5.2 0.00 0.00 0.00 47 1014.9
20260831080044 72 80 2.6 5.2 0.00 0.00 0.00 50 1015.0
20260831074541 71 83 0.9 3.5 0.00 0.00 0.00 53 1014.9
20260831073040 70 88 0.9 1.7 0.00 0.00 0.00 54 1015.0
20260831071539 68 99 0.0 0.0 0.00 0.00 0.00 58 1014.9
20260831070038 66 99 0.0 0.0 0.00 0.00 0.00 61 1014.7
20260831064538 67 101 0.0 0.0 0.00 0.00 0.00 62 1014.6
20260831063036 66 129 0.0 0.0 0.00 0.00 0.00 62 1014.7
20260831061527 0 0.0 0.0 0.00 0.00 0.00 1014.6
20260831060021 0 0.0 0.0 0.00 0.00 0.00 1014.7
20260831054517 0 0.0 0.0 0.00 0.00 0.00 1014.6
20260831053013 0 0.0 0.0 0.00 0.00 0.00 1014.5
20260831051521 0 92 0.0 0.0 0.00 0.00 0.00 1014.5
20260831050006 63 94 0.0 0.0 0.00 0.00 0.00 66 1014.4
20260831044502 63 94 0.0 0.0 0.00 0.00 0.00 65 1014.3
20260831043001 64 94 0.0 0.9 0.00 0.00 0.00 64 1014.3
20260831041605 63 240 0.0 0.0 0.00 0.00 0.00 66 1014.2
20260831040056 65 240 0.0 0.9 0.00 0.00 0.00 64 1014.3
20260831034554 65 240 0.0 0.0 0.00 0.00 0.00 64 1014.2
20260831033053 66 240 0.0 0.9 0.00 0.00 0.00 61 1014.2
20260831031552 66 245 0.0 0.9 0.00 0.00 0.00 61 1014.2
20260831030108 66 247 0.0 0.9 0.00 0.00 0.00 60 1014.1
20260831024616 65 270 0.0 0.0 0.00 0.00 0.00 61 1014.0
20260831023049 65 270 0.0 0.0 0.00 0.00 0.00 60 1013.9
20260831021547 67 260 0.0 0.9 0.00 0.00 0.00 60 1013.9
20260831020046 67 255 0.9 2.6 0.00 0.00 0.00 60 1013.9
20260831014545 65 236 0.0 0.0 0.00 0.00 0.00 62 1014.0
20260831013059 65 236 0.0 0.0 0.00 0.00 0.00 62 1013.9
20260831011540 66 236 0.0 0.0 0.00 0.00 0.00 61 1013.9
20260831010038 67 236 0.0 0.0 0.00 0.00 0.00 59 1014.0
20260831004537 67 179 0.0 0.9 0.00 0.00 0.00 59 1014.1
20260831003032 69 116 0.0 0.9 0.00 0.00 0.00 58 1014.0
20260831001529 69 116 0.0 0.9 0.00 0.00 0.00 58 1013.8
20260831000029 69 13 0.0 0.0 0.00 0.00 0.00 59 1013.8
20260830234526 69 13 0.0 0.0 0.00 0.00 0.00 59 1013.8
20260830233025 70 300 0.0 0.0 0.00 0.00 0.00 58 1013.7
20260830231531 70 300 0.0 0.9 0.00 0.00 0.00 57 1013.6
20260830230024 70 300 0.0 0.0 0.00 0.00 0.00 58 1013.6
20260830224519 71 300 0.0 0.0 0.00 0.00 0.00 56 1013.4
20260830223016 73 264 0.0 0.9 0.00 0.00 0.00 54 1013.4
20260830221523 74 270 0.0 0.0 0.00 0.00 0.00 51 1013.3
20260830220010 74 270 0.0 1.7 0.00 0.00 0.00 51 1013.3
20260830214509 75 236 0.0 0.0 0.00 0.00 0.00 52 1013.3
20260830213008 76 236 0.0 0.0 0.00 0.00 0.00 49 1013.3
20260830211508 76 238 0.0 0.9 0.00 0.00 0.00 50 1013.2
20260830210007 76 98 0.0 0.9 0.00 0.00 0.00 49 1013.0
20260830204509 77 98 0.0 1.7 0.00 0.00 0.00 48 1012.9
20260830203020 78 276 0.0 0.9 0.00 0.00 0.00 47 1012.8
20260830201506 79 277 0.0 0.9 0.00 0.00 0.00 46 1012.8
20260830200005 80 269 0.0 3.5 0.00 0.00 0.00 45 1012.5
20260830194506 80 296 0.9 3.5 0.00 0.00 0.00 43 1012.3
20260830193004 81 285 0.0 3.5 0.00 0.00 0.00 40 1012.0
20260830191504 82 282 0.0 2.6 0.00 0.00 0.00 38 1011.9
20260830190007 83 221 0.9 5.2 0.00 0.00 0.00 36 1011.8
20260830184501 84 262 1.7 7.0 0.00 0.00 0.00 33 1011.7
20260830183001 85 258 1.7 7.0 0.00 0.00 0.00 31 1011.5
20260830181620 87 146 1.7 7.8 0.00 0.00 0.00 31 1011.5
20260830180104 87 164 1.7 9.6 0.00 0.00 0.00 30 1011.4
20260830180000 87 271 1.7 9.6 0.00 0.00 0.00 30 1011.4
20260830174608 88 241 1.7 8.7 0.00 0.00 0.00 30 1011.4
20260830173110 88 258 1.7 13.9 0.00 0.00 0.00 29 1011.4
20260830171600 89 224 0.9 8.7 0.00 0.00 0.00 29 1011.4
20260830170055 89 255 2.6 8.7 0.00 0.00 0.00 29 1011.4
20260830164612 89 278 1.7 10.4 0.00 0.00 0.00 29 1011.4
20260830163107 89 281 4.3 10.4 0.00 0.00 0.00 29 1011.3
20260830161553 89 240 3.5 10.4 0.00 0.00 0.00 29 1011.3